Flag Weather past 2 weeks in Neumünster, Schleswig-Holstein, Germany

Now
46 °F

Passing clouds.


Feels Like: 43 °F
Forecast: 44 / 50 °F
Wind: 5 mph from Southeast

Location: Itzehoe

Current Time: Nov 23, 2014 at 10:29:41 PM

Latest Report: Nov 23, 2014 at 9:00 PM


Visibility: 5 mi

Pressure: 29.97 "Hg

Humidity: 88%

Dew point: 42 °F

Location of NeumünsterLocation

Historic Weather in Neumünster — Graph

°F

Neumünster temperature yesterday

Maximum temperature yesterday: 42 °F (at 12:00 PM)
Minimum temperature yesterday: 34 °F (at 5:00 AM)
Average temperature yesterday: 39 °F

Past Weeks' High & Low Weather Summary

 TemperatureHumidityPressure
High53 °F (Nov 14, 5:00 PM)100% (Nov 10, 2:00 AM)30.40 "Hg (Nov 10, 2:00 AM)
Low30 °F (Nov 21, 2:00 AM)73% (Nov 9, 2:00 PM)29.58 "Hg (Nov 16, 5:00 PM)
Average45 °F93%29.95 "Hg
* Reported Nov 8 9:00 PM — Nov 23 9:00 PM, Neumünster, Weather by CustomWeather, © 2014

Note: Actual official high and low records may vary slightly from our data, if they occured in-between our weather recording intervals... More about our weather records

Advertising

Neumünster weather history for previous 24 hours

 ConditionsComfort  
Time TempWeatherWind HumidityBarometerVisibility
9:00 PM
Nov 23
46 °FPassing clouds.5 mph88%29.97 "Hg5 mi
8:00 PM46 °FOvercast.5 mph86%29.98 "Hg6 mi
6:00 PM46 °FClear.6 mph86%29.99 "Hg6 mi
5:00 PM46 °FPassing clouds.5 mph88%30.02 "Hg5 mi
3:00 PM46 °FOvercast.3 mph87%30.06 "Hg4 mi
2:00 PM46 °FOvercast.3 mph88%30.08 "Hg4 mi
12:00 PM44 °FOvercast.5 mph88%30.12 "Hg4 mi
11:00 AM42 °FOvercast.5 mph91%30.13 "Hg3 mi
9:00 AM40 °FOvercast.3 mph93%30.14 "Hg3 mi
8:00 AM40 °FOvercast.5 mph91%30.12 "Hg4 mi
6:00 AM40 °FOvercast.3 mph91%30.12 "Hg4 mi
5:00 AM41 °FOvercast.3 mph89%30.13 "Hg4 mi
3:00 AM41 °FOvercast.5 mph88%30.14 "Hg4 mi
2:00 AM41 °FOvercast.3 mph89%30.14 "Hg3 mi
12:00 AM42 °FOvercast.5 mph88%30.14 "Hg4 mi
11:00 PM
Nov 22
42 °FOvercast.6 mph89%30.14 "Hg4 mi
Weather by CustomWeather, © 2014

See weather overviewHow to use our weather pages